| ตารางข้อมูล | 4529T1 | 4529T2 | 4529T3 | 4529T4 | TH20402 | TH452-9A | TH452-9D | TH814 | ค้นข้อมูล1 | ค้นข้อมูล2 | ค่าสูงสุด-ต่ำสุด |  

Select Sensor -->| 20402 | 452-9A | 452-9D | 4529T1 | 4529T2 | 4529T3 | 4529T4 | 814 | หน้าจอย่อ | 4529 |
Data of room  4529T3

IDRoomDate  Temp  Humidity
 184191  4529T3  2021-03-03 08:38:59  28.3  0.0 
 184186  4529T3  2021-03-03 08:18:51  28.5  0.0 
 184181  4529T3  2021-03-03 07:58:44  28.2  0.0 
 184176  4529T3  2021-03-03 07:38:37  28.4  0.0 
 184171  4529T3  2021-03-03 07:18:29  29.1  0.0 
 184166  4529T3  2021-03-03 06:58:22  28.5  0.0 
 184161  4529T3  2021-03-03 06:38:15  28.5  0.0 
 184156  4529T3  2021-03-03 06:18:08  28.5  0.0 
 184151  4529T3  2021-03-03 05:58:00  28.5  0.0 
 184146  4529T3  2021-03-03 05:37:53  28.5  0.0 
 184141  4529T3  2021-03-03 05:17:46  28.8  0.0 
 184136  4529T3  2021-03-03 04:57:39  28.6  0.0 
 184131  4529T3  2021-03-03 04:37:31  28.7  0.0 
 184126  4529T3  2021-03-03 04:17:24  28.7  0.0 
 184121  4529T3  2021-03-03 03:57:17  28.8  0.0 
 184116  4529T3  2021-03-03 03:37:09  28.8  0.0 
 184111  4529T3  2021-03-03 03:17:02  28.8  0.0 
 184106  4529T3  2021-03-03 02:56:55  29.1  0.0 
 184101  4529T3  2021-03-03 02:36:48  29.0  0.0 
 184096  4529T3  2021-03-03 02:16:40  29.0  0.0 
 184091  4529T3  2021-03-03 01:56:33  29.0  0.0 
 184086  4529T3  2021-03-03 01:36:26  29.1  0.0 
 184081  4529T3  2021-03-03 01:16:18  29.7  0.0 
 184076  4529T3  2021-03-03 00:56:11  29.2  0.0 
 184071  4529T3  2021-03-03 00:36:04  29.3  0.0 
 184066  4529T3  2021-03-03 00:15:56  29.3  0.0 
 184061  4529T3  2021-03-02 23:55:49  30.3  0.0 
 184056  4529T3  2021-03-02 23:35:42  30.3  0.0 
 184051  4529T3  2021-03-02 23:15:35  29.4  0.0 
 184046  4529T3  2021-03-02 22:55:27  29.4  0.0 
 184041  4529T3  2021-03-02 22:35:20  29.4  0.0 
 184036  4529T3  2021-03-02 22:15:13  29.5  0.0 
 184031  4529T3  2021-03-02 21:55:05  29.5  0.0 
 184026  4529T3  2021-03-02 21:34:58  29.5  0.0 
 184021  4529T3  2021-03-02 21:14:51  29.5  0.0 
 184016  4529T3  2021-03-02 20:54:44  29.6  0.0 
 184011  4529T3  2021-03-02 20:34:36  29.8  0.0 
 184006  4529T3  2021-03-02 20:14:29  29.6  0.0 
 184001  4529T3  2021-03-02 19:54:22  29.6  0.0 
 183996  4529T3  2021-03-02 19:34:15  29.6  0.0 
 183991  4529T3  2021-03-02 19:14:07  29.9  0.0 
 183986  4529T3  2021-03-02 18:54:00  29.5  0.0 
 183981  4529T3  2021-03-02 18:33:53  29.5  0.0 
 183976  4529T3  2021-03-02 18:13:45  29.5  0.0 
 183970  4529T3  2021-03-02 17:53:38  29.5  0.0 
 183965  4529T3  2021-03-02 17:33:31  29.4  0.0 
 183960  4529T3  2021-03-02 17:13:24  29.5  0.0 
 183955  4529T3  2021-03-02 16:53:16  29.6  0.0 
 183950  4529T3  2021-03-02 16:33:09  29.3  0.0 
 183945  4529T3  2021-03-02 16:13:02  29.3  0.0 
 183940  4529T3  2021-03-02 15:52:54  29.3  0.0 
 183935  4529T3  2021-03-02 15:32:47  29.2  0.0 
 183930  4529T3  2021-03-02 15:12:40  29.1  0.0 
 183925  4529T3  2021-03-02 14:52:33  29.1  0.0 
 183920  4529T3  2021-03-02 14:32:25  29.0  0.0 
 183915  4529T3  2021-03-02 14:12:18  29.0  0.0 
 183910  4529T3  2021-03-02 13:52:11  29.1  0.0 
 183905  4529T3  2021-03-02 13:32:03  29.1  0.0 
 183900  4529T3  2021-03-02 13:11:56  28.8  0.0 
 183895  4529T3  2021-03-02 12:51:48  28.7  0.0 
 183890  4529T3  2021-03-02 12:31:41  28.7  0.0 
 183885  4529T3  2021-03-02 12:11:34  28.6  0.0 
 183880  4529T3  2021-03-02 11:51:25  28.5  0.0 
 183875  4529T3  2021-03-02 11:31:17  28.5  0.0 
 183870  4529T3  2021-03-02 11:11:09  28.6  0.0 
 183865  4529T3  2021-03-02 10:51:02  28.3  0.0 
 183860  4529T3  2021-03-02 10:30:54  28.3  0.0 
 183855  4529T3  2021-03-02 10:10:47  28.3  0.0 
 183850  4529T3  2021-03-02 09:50:40  28.3  0.0 
 183845  4529T3  2021-03-02 09:30:33  28.2  0.0 
 183840  4529T3  2021-03-02 09:10:25  28.2  0.0 
 183835  4529T3  2021-03-02 08:50:18  28.2  0.0 

Data every 20 minute.


Data of room  4529T3


Data every 20 minute.

  Show Graph